Location: Molino di Ancona
(43.6167°N, 13.3667°E)
Time: 05:43:23
(UTC+00:00)

Cosmos 2221 Rocket - Pass Details

Date: 15 December 2019
Orbit: 620 x 648 km, 82.5° (Epoch: 19 January)

Event Time Altitude Azimuth Distance (km) Brightness Sun altitude
Exits shadow 04:21:53 41° 354° (N) 912 4.2 -22.7°
Maximum altitude 04:23:25 88° 85° (E) 629 3.5 -22.5°
Drops below altitude 10° 04:27:50 10° 172° (S) 1,990 6.4 -21.7°
Sets 04:30:03 0° 173° (S) 2,895 7.3 -21.3°
